Theta_e
309 309 309 309 310 310 310 310 310 311 311 312 313 314 316 316 318 320 323 324 324 323 325 325 326 326 326 324 326 327 323 322 319 316 317 317 315 318 319 319 319 318 318 317 316
308 309 309 309 309 310 310 310 311 310 310 311 312 313 315 316 317 319 321 323 324 322 324 324 324 324 323 324 326 322 318 319 316 316 315 316 316 318 319 318 317 316 316 315 315
308 308 309 309 309 309 310 311 311 311 310 311 311 312 314 316 317 318 319 322 323 322 323 323 322 322 323 323 324 324 324 318 319 318 318 316 316 319 317 318 318 315 315 315 315
308 308 308 309 309 309 309 310 311 311 310 310 311 311 312 315 319 321 323 321 323 323 323 323 323 322 320 321 322 323 323 322 320 319 318 316 318 319 319 319 319 318 316 315 315
308 308 308 308 308 308 309 310 311 311 311 311 310 311 311 314 317 324 324 322 322 323 324 325 324 322 322 322 323 319 319 319 319 319 319 318 318 318 319 320 318 317 315 315 315
307 308 308 308 308 308 309 310 310 311 311 311 311 310 310 318 316 317 320 323 323 323 324 324 324 322 324 323 320 321 319 319 319 319 318 317 317 319 318 318 318 317 315 315 315
308 308 307 308 308 308 309 309 310 311 311 312 311 311 310 312 316 319 317 321 324 323 325 324 323 324 325 322 323 320 319 318 317 316 317 317 317 315 319 318 317 316 315 315 315
306 308 308 308 308 308 309 309 309 310 312 312 312 313 310 313 314 315 323 321 322 324 324 325 322 324 322 322 320 320 317 318 317 316 317 317 316 316 318 318 317 315 315 315 315
301 304 306 308 309 309 309 309 310 311 312 312 314 312 312 315 315 316 318 321 322 324 324 322 324 321 321 318 318 318 320 318 318 316 317 316 316 316 319 318 317 315 315 315 315
300 301 303 306 308 309 310 309 310 311 312 314 314 310 312 314 316 317 319 323 324 323 321 323 322 319 315 317 320 319 319 318 318 317 316 315 315 316 318 318 317 315 315 315 315
307 303 301 301 304 307 310 310 312 319 316 314 313 313 317 319 318 319 323 323 322 324 321 322 319 319 319 318 318 319 320 320 320 318 318 316 316 315 318 317 316 315 315 315 315
307 305 303 301 302 304 307 309 312 312 312 315 316 316 315 315 316 320 323 323 322 321 321 320 319 320 319 319 319 318 319 319 318 318 316 317 317 315 316 317 317 315 315 315 315
307 305 303 304 301 302 306 309 310 314 314 317 318 318 316 316 317 318 322 323 322 321 320 321 322 321 320 320 320 319 319 319 319 319 317 316 316 318 317 318 319 315 315 315 315
304 307 305 304 302 301 305 309 311 315 315 316 318 318 318 318 318 318 319 323 321 323 319 320 320 321 321 321 319 319 318 319 320 318 317 317 317 318 318 317 317 315 315 315 315
306 304 307 303 303 305 308 309 314 316 313 315 317 318 318 319 318 318 319 321 321 320 320 322 320 320 321 321 320 320 320 318 319 318 317 319 317 318 318 319 320 314 315 315 316
306 304 304 306 302 303 308 312 315 315 316 315 317 318 317 318 319 319 320 320 323 320 320 321 322 320 321 321 320 320 318 318 316 316 317 317 318 317 320 320 321 316 315 315 316
306 305 303 305 303 302 302 310 315 316 314 316 314 317 318 317 318 319 319 320 321 321 321 321 320 320 320 319 317 317 315 316 318 318 320 319 320 319 319 319 321 319 316 316 316
306 305 304 303 305 303 305 311 315 314 314 315 314 316 318 317 317 319 319 319 318 320 320 321 323 320 320 319 319 315 315 316 319 319 320 322 324 323 320 324 321 321 319 317 316
306 305 304 305 304 303 304 314 316 313 314 315 316 316 316 317 318 318 319 319 318 318 322 321 322 321 319 318 316 317 318 316 318 319 321 322 324 326 324 323 321 318 316 317 316
306 307 305 305 304 304 304 314 314 314 314 314 314 315 316 315 317 317 318 319 319 318 318 319 321 319 320 320 319 316 316 318 315 321 321 321 326 327 327 325 323 316 315 316 317
305 305 305 305 304 303 303 310 314 315 315 313 313 313 315 316 316 316 317 318 319 318 317 317 319 321 322 322 320 320 322 322 317 318 320 320 324 324 327 326 324 318 316 317 317
305 305 305 304 303 302 302 306 313 314 314 315 314 313 315 316 317 315 317 318 319 318 318 317 317 320 325 327 325 320 321 322 321 324 323 323 326 324 327 327 323 319 317 317 318
302 305 304 305 304 303 304 304 309 312 314 312 313 314 314 315 316 317 318 319 319 317 317 316 317 320 323 328 326 326 328 327 324 325 328 329 327 324 327 324 323 319 317 317 318
301 304 303 304 305 304 304 303 305 308 309 310 312 312 312 313 314 315 318 318 317 319 319 319 317 320 321 321 326 327 329 327 325 326 329 328 327 325 327 327 324 320 318 317 318
301 302 304 307 306 305 301 302 303 305 308 310 311 312 312 313 313 313 314 314 316 316 319 318 319 319 320 321 325 325 328 328 326 324 327 326 327 327 326 327 326 321 318 317 318
300 303 304 304 306 305 306 304 304 304 305 308 309 310 310 311 312 313 313 315 315 315 321 318 320 326 329 322 325 326 325 328 327 327 326 327 327 326 327 327 327 324 319 317 317
300 302 304 304 304 305 306 306 307 307 307 308 307 308 309 309 309 310 311 311 310 309 313 322 321 324 329 327 329 330 327 326 327 326 326 326 326 325 326 327 327 327 321 321 319
Wind_Speed
16 15 15 15 16 16 15 15 14 15 16 15 14 16 16 18 20 25 31 27 19 13 11 17 16 16 15 11 10 6 3 3 5 8 6 9 5 11 5 9 5 4 7 13 12
17 17 17 17 17 17 16 16 16 16 17 16 16 16 16 17 20 32 33 25 20 19 18 19 18 16 11 4 4 4 3 6 6 4 6 13 10 13 7 11 6 14 15 13 8
19 19 18 18 18 18 17 17 17 17 17 16 17 15 14 14 19 39 23 26 22 21 23 21 17 11 9 9 5 4 6 6 5 8 11 11 8 9 20 2 15 22 17 12 6
19 19 18 19 18 18 18 17 17 19 18 17 16 14 13 11 8 4 5 17 23 23 22 24 20 9 2 4 7 3 19 13 10 7 11 10 12 6 11 10 19 15 15 11 7
21 20 19 19 20 19 19 18 18 18 18 18 16 14 13 16 27 8 1 12 25 23 26 26 22 10 5 5 8 4 4 8 12 13 12 12 7 7 10 15 17 17 16 12 5
24 22 22 21 20 20 19 18 18 19 19 18 17 16 16 17 30 31 26 9 23 27 26 24 18 18 6 7 4 6 8 9 11 11 12 8 4 8 12 17 19 19 17 10 4
26 25 24 23 22 21 20 19 18 18 19 19 18 18 22 37 14 13 30 22 18 31 29 25 21 12 6 3 12 6 4 5 4 9 6 7 2 8 17 20 21 20 16 11 6
26 26 25 24 23 23 22 20 18 19 18 19 17 16 22 21 23 30 13 24 22 25 30 21 15 17 5 3 3 3 4 3 5 5 3 7 9 4 19 26 22 20 18 13 8
26 25 24 24 24 24 24 21 20 19 17 15 12 14 14 9 22 24 25 21 25 25 28 22 15 11 5 5 3 5 4 5 5 11 3 3 7 3 24 27 23 24 20 15 11
26 26 25 24 23 24 24 20 18 17 12 7 9 6 18 13 16 23 20 21 21 23 22 14 7 3 3 3 6 5 5 5 5 4 6 6 10 4 24 26 23 26 21 16 11
28 26 25 23 22 22 21 15 10 6 12 12 10 14 6 9 9 19 22 21 22 6 6 4 3 6 8 7 6 5 4 7 3 4 6 11 8 10 17 13 16 25 22 18 13
28 27 26 24 21 20 18 9 0 9 11 19 30 30 33 26 9 16 26 18 9 7 3 1 8 8 7 4 4 5 7 7 7 4 8 7 12 5 9 17 20 27 25 22 17
27 26 25 24 21 20 19 15 11 14 6 11 21 28 35 18 18 20 19 28 6 9 8 10 12 6 4 3 5 6 5 5 7 5 2 3 6 3 5 13 14 26 27 23 20
24 25 23 19 17 18 15 13 10 6 3 7 8 19 23 19 7 26 25 15 7 17 8 11 7 8 5 6 5 6 8 9 5 3 6 5 5 5 4 10 9 24 28 27 22
24 24 23 16 12 10 10 17 9 7 5 8 9 10 23 19 13 16 27 18 12 8 7 15 8 7 9 11 7 11 10 10 5 5 2 0 3 7 3 6 9 18 32 29 24
26 24 21 19 25 21 13 10 6 3 10 6 7 9 9 15 16 10 16 24 14 7 4 13 14 9 11 9 7 13 1 6 4 3 2 6 5 5 5 8 5 14 28 32 27
28 24 22 20 21 19 19 6 2 9 4 7 7 7 14 9 14 12 8 5 11 6 8 5 6 4 5 5 1 4 5 3 4 3 6 1 3 8 9 11 10 20 30 34 29
30 27 25 25 24 16 8 3 12 8 14 4 5 6 14 10 10 11 13 12 7 8 6 9 11 9 6 8 9 9 10 6 7 5 9 3 5 7 6 12 18 28 36 36 32
28 30 28 28 21 19 5 11 16 7 16 5 2 5 6 12 7 14 16 16 11 12 17 11 12 4 7 6 10 6 4 8 5 2 2 3 6 9 3 6 12 17 27 36 35
30 33 35 25 18 18 4 29 10 7 4 14 10 6 9 8 11 14 14 17 11 10 7 8 6 7 12 5 5 8 5 3 2 3 6 3 3 6 6 4 5 9 21 32 35
32 16 21 27 23 18 11 19 20 4 5 18 19 4 6 7 14 10 11 15 15 12 11 7 6 3 3 7 11 2 2 4 4 4 6 1 6 7 8 8 15 16 32 40 39
29 7 21 24 8 6 17 19 19 20 4 3 2 10 6 5 4 8 15 12 23 9 9 10 7 8 9 2 3 5 10 8 5 4 2 4 7 4 4 9 13 19 32 39 39
7 16 15 32 9 9 20 23 10 11 18 1 4 4 4 8 2 5 4 4 6 11 9 7 4 6 6 3 2 2 4 5 6 4 6 6 6 1 1 5 16 18 25 35 40
7 5 11 21 18 16 14 21 21 19 5 4 3 4 4 2 0 3 2 2 2 4 8 18 7 13 19 13 6 5 6 7 7 5 4 5 6 6 6 4 4 18 26 34 41
13 3 6 7 13 17 5 2 21 5 17 2 3 5 5 2 1 5 2 6 10 6 4 10 16 11 14 17 14 9 11 12 6 7 8 10 9 6 7 3 9 12 23 30 39
7 4 2 6 19 16 13 7 6 19 3 16 10 3 2 8 5 1 4 1 4 5 3 4 6 7 5 10 15 15 13 18 9 2 1 5 7 6 5 3 11 25 29 34 38
8 7 2 2 5 7 12 15 5 4 5 8 6 2 10 14 16 20 24 17 10 7 3 4 5 4 4 5 8 7 14 12 6 7 9 8 12 4 4 8 20 24 30 38 43
Wind_Direction
298 302 301 303 304 308 312 311 310 306 301 294 283 275 267 258 249 246 239 228 237 226 216 214 224 234 244 255 232 214 75 252 242 167 224 189 153 167 165 145 120 164 154 160 169
296 295 296 297 298 302 304 306 308 306 304 302 292 283 275 269 262 251 239 232 235 213 222 220 229 241 242 230 180 139 137 235 209 229 202 183 172 162 133 129 101 123 142 159 173
294 297 295 296 298 300 301 302 304 301 303 302 293 288 279 275 276 251 254 232 224 215 223 240 244 261 277 270 220 204 225 200 264 221 198 174 194 163 132 213 176 166 167 174 204
286 287 288 290 294 297 299 301 302 302 302 298 295 290 278 251 240 257 221 222 217 226 231 237 251 241 253 270 270 255 266 232 192 205 162 172 189 162 164 206 186 186 183 187 208
288 289 292 295 296 297 298 299 297 299 300 298 293 284 268 245 232 176 154 209 209 221 229 236 232 223 224 249 310 216 239 183 163 159 178 170 186 180 203 165 171 176 184 187 185
285 289 291 291 292 294 295 293 294 296 297 292 287 273 251 257 251 245 249 254 211 213 229 222 227 234 258 245 170 237 195 178 176 173 160 144 177 167 181 162 172 182 182 183 189
284 286 286 288 290 292 291 293 293 289 288 286 279 264 245 243 257 253 242 240 224 218 227 228 237 229 254 259 242 193 111 347 242 187 188 150 197 231 195 176 179 182 181 179 175
277 279 284 287 288 290 290 288 288 283 283 282 273 250 247 263 257 244 229 231 232 234 229 239 234 243 204 202 9 165 84 186 256 155 243 156 261 253 188 181 187 183 183 181 170
279 278 279 280 285 288 288 292 292 280 277 274 256 210 259 246 242 234 234 239 226 230 231 235 235 225 148 100 357 358 251 227 296 192 143 170 258 262 186 190 191 188 184 179 162
279 279 278 279 282 285 286 295 295 284 255 239 205 198 253 253 242 227 230 220 217 227 236 241 226 152 69 104 234 246 274 264 259 216 188 201 249 277 191 198 194 192 186 181 171
276 275 274 279 280 280 285 305 286 252 225 211 214 214 209 5 212 219 206 202 214 232 197 187 149 205 213 206 204 222 236 257 246 245 182 225 224 231 197 207 190 191 190 185 176
271 275 276 272 271 274 273 269 186 338 289 263 251 255 258 268 297 217 200 194 186 211 193 33 217 213 219 211 203 237 253 273 283 245 178 254 245 216 188 216 203 188 195 189 175
271 268 269 272 269 262 255 244 239 311 254 272 250 243 245 246 231 232 206 202 165 207 210 218 241 193 174 265 266 258 231 249 236 338 234 127 302 209 219 209 206 201 203 192 185
284 275 272 263 271 257 248 241 236 300 292 273 210 240 223 211 238 226 221 194 207 202 180 217 207 188 186 223 185 267 236 247 249 157 236 141 257 293 230 209 190 188 199 195 189
280 281 272 257 234 247 218 218 227 167 276 250 207 224 207 185 163 226 219 214 193 173 151 222 164 187 220 234 197 249 240 233 229 206 143 301 87 265 119 218 227 199 199 197 191
270 277 278 253 245 235 222 204 204 78 240 265 201 185 158 185 191 192 196 213 215 178 217 201 213 162 213 230 194 245 261 48 45 87 34 233 151 285 225 211 207 195 199 195 190
256 263 265 255 242 237 235 227 180 211 203 221 217 169 192 174 196 190 194 168 192 176 200 175 210 192 162 205 3 115 83 289 334 346 220 264 111 229 250 238 199 187 193 194 189
244 248 254 258 240 238 230 129 224 205 209 232 177 163 192 168 201 192 204 219 231 186 170 189 233 187 201 178 207 204 184 172 213 226 260 188 230 255 231 282 239 196 192 186 187
239 235 244 247 241 233 220 206 216 180 196 213 83 158 208 201 167 182 206 218 202 184 211 193 231 230 178 183 158 221 177 204 131 354 44 255 298 319 24 38 118 152 169 183 188
229 229 238 243 232 205 190 226 214 188 134 204 191 175 178 184 186 190 185 209 209 175 174 209 220 206 236 149 208 166 175 87 0 177 251 275 267 246 271 176 150 158 175 184 188
223 213 233 231 198 177 217 217 215 292 177 194 227 191 209 178 190 204 213 218 194 196 186 148 152 257 145 179 214 205 157 56 125 138 189 194 263 221 247 198 200 187 182 189 189
213 204 196 181 163 204 226 219 226 220 245 220 151 204 185 189 169 204 212 199 199 190 180 195 166 212 211 255 243 177 187 155 172 226 153 158 262 29 277 214 202 200 187 191 191
210 189 196 184 190 216 231 223 242 234 240 161 233 196 182 181 203 204 192 183 203 198 190 164 217 230 294 29 17 180 173 134 114 91 185 154 264 83 117 233 206 197 186 188 191
188 181 163 198 220 216 220 226 219 238 293 288 293 25 85 109 283 255 173 300 322 175 272 186 179 204 226 225 158 189 185 184 140 127 169 229 290 308 325 227 203 198 194 189 194
202 267 197 174 212 225 160 294 217 244 216 190 252 173 93 130 297 216 189 286 284 268 254 169 217 217 230 212 197 191 177 188 163 171 181 225 208 231 274 151 268 241 189 186 193
177 222 313 174 208 210 204 210 222 216 209 229 242 310 186 218 182 334 57 351 261 15 15 322 218 152 206 194 205 208 202 189 188 105 68 142 245 211 169 174 199 212 191 188 196
208 233 277 239 164 168 212 207 166 179 289 249 294 316 243 271 253 248 265 260 246 282 268 221 147 122 226 196 119 252 194 171 172 186 172 193 230 162 286 251 234 226 203 199 202